TimeEST,TemperatureF,Dew PointF,Humidity,Sea Level PressureIn,VisibilityMPH,Wind Direction,Wind SpeedMPH,Gust SpeedMPH,PrecipitationIn,Events,Conditions,WindDirDegrees,DateUTC
12:53 AM,30.9,19.0,61,30.32,10.0,Calm,Calm,-,N/A,,Clear,0,2013-02-18 05:53:00
1:53 AM,28.9,19.9,69,30.34,10.0,Calm,Calm,-,N/A,,Clear,0,2013-02-18 06:53:00
2:53 AM,27.0,19.9,75,30.34,10.0,Calm,Calm,-,N/A,,Clear,0,2013-02-18 07:53:00
3:53 AM,27.0,21.0,78,30.35,10.0,Calm,Calm,-,N/A,,Clear,0,2013-02-18 08:53:00
4:53 AM,27.0,21.9,81,30.35,10.0,Calm,Calm,-,N/A,,Clear,0,2013-02-18 09:53:00
5:53 AM,26.1,23.0,88,30.38,10.0,WSW,4.6,-,N/A,,Clear,240,2013-02-18 10:53:00
6:53 AM,26.1,21.9,84,30.39,10.0,Calm,Calm,-,N/A,,Clear,0,2013-02-18 11:53:00
7:53 AM,28.0,25.0,88,30.41,10.0,Calm,Calm,-,N/A,,Clear,0,2013-02-18 12:53:00
8:53 AM,37.9,24.1,57,30.42,10.0,Calm,Calm,-,N/A,,Clear,0,2013-02-18 13:53:00
9:53 AM,45.0,21.0,39,30.42,10.0,Calm,Calm,-,N/A,,Clear,0,2013-02-18 14:53:00
10:53 AM,48.9,16.0,27,30.42,10.0,Calm,Calm,-,N/A,,Clear,0,2013-02-18 15:53:00
11:53 AM,52.0,17.1,25,30.41,10.0,Variable,3.5,-,N/A,,Clear,0,2013-02-18 16:53:00
12:53 PM,54.0,19.9,26,30.38,10.0,South,6.9,-,N/A,,Clear,170,2013-02-18 17:53:00
1:53 PM,55.0,19.9,25,30.36,10.0,SW,9.2,-,N/A,,Clear,230,2013-02-18 18:53:00
2:53 PM,55.9,21.9,27,30.33,10.0,South,8.1,-,N/A,,Clear,180,2013-02-18 19:53:00
3:53 PM,55.9,21.9,27,30.32,10.0,SSE,10.4,-,N/A,,Clear,160,2013-02-18 20:53:00
4:53 PM,55.9,21.0,26,30.31,10.0,South,5.8,-,N/A,,Clear,180,2013-02-18 21:53:00
5:53 PM,53.1,21.9,30,30.32,10.0,South,6.9,-,N/A,,Clear,190,2013-02-18 22:53:00
6:53 PM,48.9,24.1,38,30.33,10.0,South,9.2,-,N/A,,Clear,170,2013-02-18 23:53:00
7:53 PM,45.0,26.1,48,30.32,10.0,SSE,4.6,-,N/A,,Clear,160,2013-02-19 00:53:00
8:53 PM,42.1,26.1,53,30.30,10.0,SSE,5.8,-,N/A,,Clear,150,2013-02-19 01:53:00
9:53 PM,42.1,26.1,53,30.29,10.0,SE,4.6,-,N/A,,Clear,140,2013-02-19 02:53:00
10:53 PM,39.0,26.1,60,30.29,10.0,Calm,Calm,-,N/A,,Clear,0,2013-02-19 03:53:00
11:53 PM,37.0,28.9,73,30.28,10.0,Calm,Calm,-,N/A,,Clear,0,2013-02-19 04:53:00